Regional Weather Roundup
Issued by NWS

Home | Current Version | Previous Version | Text Only | Print | Product List | Glossary Off
Versions: 1 2 3 4 5 6 7 8 9 10 11 12 13 14 15 16 17 18 19 20 21 22 23 24 25 26 27 28 29 30 31 32 33 34 35 36 37 38 39 40 41 42 43 44 45 46 47 48 49 50

000
ASUS43 KLSX 291459
RWRMO

WEATHER SUMMARY FOR MISSOURI
NATIONAL WEATHER SERVICE SPRINGFIELD MO
1000 AM CDT WED JUL 29 2015

NOTE: "FAIR" INDICATES FEW OR NO CLOUDS BELOW 12,000 FEET WITH NO
       SIGNIFICANT WEATHER AND/OR OBSTRUCTIONS TO VISIBILITY.
       CURRENT SKY AND/OR WEATHER CONDITIONS ARE NOT AVAILABLE FOR
       CHILLICOTHE AND FARMINGTON.

MOZ001>031-035>038-043-044-053-054-291600-
...NORTHERN AND WESTERN MISSOURI...

CITY           SKY/WX    TMP DP  RH WIND       PRES   REMARKS
KANSAS CTY INT CLOUDY    73  70  90 N3        30.14S
KANSAS C DTWN  FAIR      76  71  85 N3        30.13S
LEE`S SUMMIT   FAIR      74  70  87 N12       30.14S
ST JOSEPH      CLOUDY    73  72  96 SW6       30.14S
CHILLICOTHE      N/A     78  73  84 NW5       30.12S
KIRKSVILLE     FAIR      78  66  66 N10       30.11S

$$
MOZ066>068-077>081-088>096-101>105-291600-
...SOUTHWEST MISSOURI...

CITY           SKY/WX    TMP DP  RH WIND       PRES   REMARKS
SPRINGFIELD    FAIR      86  72  62 N5        30.10S HX  92
JOPLIN         FAIR      86  73  65 E6        30.10S HX  93

$$
MOZ032>034-039>042-045>050-055>058-069>072-291600-
...CENTRAL MISSOURI...

CITY           SKY/WX    TMP DP  RH WIND       PRES   REMARKS
COLUMBIA       FAIR      78  70  76 N13       30.11R
JEFFERSON CITY FAIR      81  69  67 NW12G23   30.08R
ROLLA          FAIR      82  72  71 VRB3      30.05F
SEDALIA        PTSUNNY   78  69  73 N10       30.13S
OSAGE BEACH    FAIR      82  70  65 CALM      30.08R

$$
MOZ051-052-059>065-291600-
...EAST CENTRAL MISSOURI...

CITY           SKY/WX    TMP DP  RH WIND       PRES   REMARKS
ST LOUIS INTL  PTSUNNY   85  72  65 N7        30.02S HX  91
SPIRIT OF STL  PTSUNNY   83  73  72 N5        30.02R
ST CHARLES     FAIR      79  73  82 NW8       30.02R

$$
MOZ072>076-082>087-097>100-106>115-291600-
...SOUTH CENTRAL AND SOUTHEAST MISSOURI...

CITY           SKY/WX    TMP DP  RH WIND       PRES   REMARKS
CAPE GIRARDEAU FAIR      89  78  70 W6        30.01S HX 103
FARMINGTON     FAIR      84  75  74 CALM      30.08F HX  92
POPLAR BLUFF   FAIR      89  78  70 W6        30.01S HX 103
WEST PLAINS    FAIR      87  75  67 NW6       30.11R HX  96

$$



USA.gov is the U.S. government's official web portal to all federal, state and local government web resources and services.